Time,TemperatureF,DewpointF,PressureIn,WindDirection,WindDirectionDegrees,WindSpeedMPH,WindSpeedGustMPH,Humidity,HourlyPrecipIn,Conditions,Clouds,dailyrainin,SoftwareType,DateUTC
2013-06-13 00:02:00,84.0,74.0,29.97,East,93,0.0,-999.0,71,-99.99,,,0.00,weatherlink.com 1.10,2013-06-13 04:02:00,
2013-06-13 00:17:00,83.8,74.0,29.97,East,87,0.0,-999.0,72,-99.99,,,0.00,weatherlink.com 1.10,2013-06-13 04:17:00,
2013-06-13 00:32:00,83.6,74.0,29.96,East,85,0.0,-999.0,72,-99.99,,,0.00,weatherlink.com 1.10,2013-06-13 04:32:00,
2013-06-13 00:47:00,83.4,74.0,29.95,East,96,1.0,-999.0,73,-99.99,,,0.00,weatherlink.com 1.10,2013-06-13 04:47:00,
2013-06-13 01:02:00,83.4,74.0,29.95,East,97,0.0,-999.0,73,-99.99,,,0.00,weatherlink.com 1.10,2013-06-13 05:02:00,
2013-06-13 01:17:00,83.4,74.0,29.95,East,97,0.0,-999.0,74,-99.99,,,0.00,weatherlink.com 1.10,2013-06-13 05:17:00,
2013-06-13 01:32:00,83.2,74.0,29.94,East,97,0.0,-999.0,74,-99.99,,,0.00,weatherlink.com 1.10,2013-06-13 05:32:00,
2013-06-13 01:47:00,83.0,74.0,29.94,East,97,0.0,-999.0,74,-99.99,,,0.00,weatherlink.com 1.10,2013-06-13 05:47:00,
2013-06-13 02:02:00,83.0,74.0,29.93,East,97,0.0,-999.0,75,-99.99,,,0.00,weatherlink.com 1.10,2013-06-13 06:02:00,
2013-06-13 02:17:00,82.6,74.0,29.93,East,97,0.0,-999.0,75,-99.99,,,0.00,weatherlink.com 1.10,2013-06-13 06:17:00,
2013-06-13 02:32:00,82.4,74.0,29.92,East,97,0.0,-999.0,76,-99.99,,,0.00,weatherlink.com 1.10,2013-06-13 06:32:00,
2013-06-13 02:47:00,82.2,74.0,29.92,East,96,0.0,-999.0,76,-99.99,,,0.00,weatherlink.com 1.10,2013-06-13 06:47:00,
2013-06-13 03:02:00,82.0,74.0,29.92,East,96,0.0,-999.0,77,-99.99,,,0.00,weatherlink.com 1.10,2013-06-13 07:02:00,
2013-06-13 03:17:00,81.8,74.0,29.92,East,96,0.0,-999.0,77,-99.99,,,0.00,weatherlink.com 1.10,2013-06-13 07:17:00,
2013-06-13 03:32:00,81.6,73.0,29.93,East,96,0.0,-999.0,76,-99.99,,,0.00,weatherlink.com 1.10,2013-06-13 07:32:00,
2013-06-13 03:47:00,81.2,73.0,29.92,East,97,0.0,-999.0,76,-99.99,,,0.00,weatherlink.com 1.10,2013-06-13 07:47:00,
2013-06-13 04:02:00,80.9,72.0,29.92,East,97,0.0,-999.0,75,-99.99,,,0.00,weatherlink.com 1.10,2013-06-13 08:02:00,
2013-06-13 04:17:00,80.3,72.0,29.92,East,97,0.0,-999.0,75,-99.99,,,0.00,weatherlink.com 1.10,2013-06-13 08:17:00,
2013-06-13 04:32:00,80.1,72.0,29.92,East,97,0.0,-999.0,75,-99.99,,,0.00,weatherlink.com 1.10,2013-06-13 08:32:00,
2013-06-13 04:47:00,79.9,71.0,29.92,East,97,0.0,-999.0,74,-99.99,,,0.00,weatherlink.com 1.10,2013-06-13 08:47:00,
2013-06-13 05:02:00,79.8,71.0,29.92,East,97,0.0,-999.0,74,-99.99,,,0.00,weatherlink.com 1.10,2013-06-13 09:02:00,
2013-06-13 05:17:00,79.8,71.0,29.92,East,97,0.0,-999.0,74,-99.99,,,0.00,weatherlink.com 1.10,2013-06-13 09:17:00,
2013-06-13 05:32:00,79.6,70.0,29.92,East,97,0.0,-999.0,73,-99.99,,,0.00,weatherlink.com 1.10,2013-06-13 09:32:00,
2013-06-13 05:47:00,79.6,70.0,29.93,East,97,0.0,-999.0,73,-99.99,,,0.00,weatherlink.com 1.10,2013-06-13 09:47:00,
2013-06-13 06:02:00,79.4,70.0,29.93,East,97,0.0,-999.0,73,-99.99,,,0.00,weatherlink.com 1.10,2013-06-13 10:02:00,
2013-06-13 06:17:00,79.4,70.0,29.94,East,97,0.0,-999.0,73,-99.99,,,0.00,weatherlink.com 1.10,2013-06-13 10:17:00,
2013-06-13 06:32:00,79.2,70.0,29.94,East,97,0.0,-999.0,73,-99.99,,,0.00,weatherlink.com 1.10,2013-06-13 10:32:00,
2013-06-13 06:47:00,79.2,70.0,29.94,East,97,0.0,-999.0,73,-99.99,,,0.00,weatherlink.com 1.10,2013-06-13 10:47:00,
2013-06-13 07:02:00,79.2,70.0,29.94,East,97,0.0,-999.0,73,-99.99,,,0.00,weatherlink.com 1.10,2013-06-13 11:02:00,
2013-06-13 07:17:00,79.4,70.0,29.94,East,97,0.0,-999.0,73,-99.99,,,0.00,weatherlink.com 1.10,2013-06-13 11:17:00,
2013-06-13 07:32:00,79.6,70.0,29.95,East,97,0.0,-999.0,73,-99.99,,,0.00,weatherlink.com 1.10,2013-06-13 11:32:00,
2013-06-13 07:47:00,79.9,71.0,29.95,East,101,0.0,-999.0,73,-99.99,,,0.00,weatherlink.com 1.10,2013-06-13 11:47:00,
2013-06-13 08:02:00,80.3,71.0,29.95,ESE,108,0.0,-999.0,72,-99.99,,,0.00,weatherlink.com 1.10,2013-06-13 12:02:00,
2013-06-13 08:17:00,80.9,71.0,29.95,ESE,106,0.0,-999.0,71,-99.99,,,0.00,weatherlink.com 1.10,2013-06-13 12:17:00,
2013-06-13 08:32:00,81.6,71.0,29.95,ESE,106,0.0,-999.0,70,-99.99,,,0.00,weatherlink.com 1.10,2013-06-13 12:32:00,
2013-06-13 08:47:00,82.2,71.0,29.95,ESE,106,0.0,-999.0,69,-99.99,,,0.00,weatherlink.com 1.10,2013-06-13 12:47:00,
2013-06-13 09:02:00,82.8,71.0,29.95,East,97,0.0,-999.0,67,-99.99,,,0.00,weatherlink.com 1.10,2013-06-13 13:02:00,
2013-06-13 09:17:00,83.4,71.0,29.95,SSE,149,1.0,-999.0,66,-99.99,,,0.00,weatherlink.com 1.10,2013-06-13 13:17:00,
2013-06-13 09:32:00,84.3,71.0,29.95,ESE,109,0.0,-999.0,64,-99.99,,,0.00,weatherlink.com 1.10,2013-06-13 13:32:00,
2013-06-13 09:47:00,85.3,71.0,29.95,NNE,14,0.0,-999.0,63,-99.99,,,0.00,weatherlink.com 1.10,2013-06-13 13:47:00,
2013-06-13 10:02:00,86.1,71.0,29.95,ESE,103,0.0,-999.0,60,-99.99,,,0.00,weatherlink.com 1.10,2013-06-13 14:02:00,
2013-06-13 10:17:00,86.7,71.0,29.95,ESE,104,5.0,-999.0,59,-99.99,,,0.00,weatherlink.com 1.10,2013-06-13 14:17:00,
2013-06-13 10:32:00,88.0,70.0,29.95,SSE,147,5.0,-999.0,56,-99.99,,,0.00,weatherlink.com 1.10,2013-06-13 14:32:00,
2013-06-13 10:48:00,88.8,71.0,29.94,SSE,168,0.0,-999.0,56,-99.99,,,0.00,weatherlink.com 1.10,2013-06-13 14:48:00,
2013-06-13 11:03:00,89.7,71.0,29.94,East,91,0.0,-999.0,54,-99.99,,,0.00,weatherlink.com 1.10,2013-06-13 15:03:00,
2013-06-13 11:18:00,91.0,70.0,29.94,ENE,68,1.0,-999.0,50,-99.99,,,0.00,weatherlink.com 1.10,2013-06-13 15:18:00,
2013-06-13 11:33:00,91.6,68.0,29.94,NE,41,2.0,-999.0,46,-99.99,,,0.00,weatherlink.com 1.10,2013-06-13 15:33:00,
2013-06-13 11:48:00,92.3,69.0,29.93,SE,134,2.0,-999.0,46,-99.99,,,0.00,weatherlink.com 1.10,2013-06-13 15:48:00,
2013-06-13 12:03:00,93.6,68.0,29.93,SE,133,1.0,-999.0,43,-99.99,,,0.00,weatherlink.com 1.10,2013-06-13 16:03:00,
2013-06-13 12:18:00,93.6,67.0,29.92,East,81,11.0,-999.0,41,-99.99,,,0.00,weatherlink.com 1.10,2013-06-13 16:18:00,
2013-06-13 12:33:00,94.7,68.0,29.92,East,81,2.0,-999.0,41,-99.99,,,0.00,weatherlink.com 1.10,2013-06-13 16:33:00,
2013-06-13 12:48:00,95.4,66.0,29.92,South,182,4.0,-999.0,38,-99.99,,,0.00,weatherlink.com 1.10,2013-06-13 16:48:00,
2013-06-13 13:03:00,95.6,66.0,29.91,East,94,0.0,-999.0,38,-99.99,,,0.00,weatherlink.com 1.10,2013-06-13 17:03:00,
2013-06-13 13:18:00,95.6,66.0,29.91,SE,141,6.0,-999.0,38,-99.99,,,0.00,weatherlink.com 1.10,2013-06-13 17:18:00,
2013-06-13 13:33:00,96.1,65.0,29.91,East,91,1.0,-999.0,36,-99.99,,,0.00,weatherlink.com 1.10,2013-06-13 17:33:00,
2013-06-13 13:48:00,96.6,66.0,29.89,ESE,123,1.0,-999.0,36,-99.99,,,0.00,weatherlink.com 1.10,2013-06-13 17:48:00,
2013-06-13 14:03:00,97.5,66.0,29.89,SSE,147,1.0,-999.0,35,-99.99,,,0.00,weatherlink.com 1.10,2013-06-13 18:03:00,
2013-06-13 14:18:00,98.0,65.0,29.88,East,83,3.0,-999.0,34,-99.99,,,0.00,weatherlink.com 1.10,2013-06-13 18:18:00,
2013-06-13 14:33:00,97.5,64.0,29.88,NE,50,6.0,-999.0,33,-99.99,,,0.00,weatherlink.com 1.10,2013-06-13 18:33:00,
2013-06-13 14:48:00,99.0,63.0,29.87,ESE,102,3.0,-999.0,31,-99.99,,,0.00,weatherlink.com 1.10,2013-06-13 18:48:00,
2013-06-13 15:03:00,98.2,63.0,29.86,NE,54,6.0,-999.0,31,-99.99,,,0.00,weatherlink.com 1.10,2013-06-13 19:03:00,
2013-06-13 15:18:00,98.0,63.0,29.86,ESE,108,3.0,-999.0,32,-99.99,,,0.00,weatherlink.com 1.10,2013-06-13 19:18:00,
2013-06-13 15:33:00,98.5,61.0,29.85,ENE,78,4.0,-999.0,29,-99.99,,,0.00,weatherlink.com 1.10,2013-06-13 19:33:00,
2013-06-13 15:48:00,98.0,62.0,29.85,ESE,121,3.0,-999.0,30,-99.99,,,0.00,weatherlink.com 1.10,2013-06-13 19:48:00,
2013-06-13 16:03:00,97.5,61.0,29.84,ENE,72,0.0,-999.0,30,-99.99,,,0.00,weatherlink.com 1.10,2013-06-13 20:03:00,
2013-06-13 16:18:00,98.2,62.0,29.83,ESE,102,2.0,-999.0,30,-99.99,,,0.00,weatherlink.com 1.10,2013-06-13 20:18:00,
2013-06-13 16:33:00,98.2,61.0,29.83,SSE,158,4.0,-999.0,29,-99.99,,,0.00,weatherlink.com 1.10,2013-06-13 20:33:00,
2013-06-13 16:48:00,97.5,61.0,29.83,East,91,2.0,-999.0,30,-99.99,,,0.00,weatherlink.com 1.10,2013-06-13 20:48:00,
2013-06-13 17:03:00,96.8,62.0,29.83,East,85,2.0,-999.0,31,-99.99,,,0.00,weatherlink.com 1.10,2013-06-13 21:03:00,
2013-06-13 17:18:00,96.1,61.0,29.83,SE,128,2.0,-999.0,31,-99.99,,,0.00,weatherlink.com 1.10,2013-06-13 21:18:00,
2013-06-13 17:33:00,95.6,61.0,29.83,East,85,5.0,-999.0,32,-99.99,,,0.00,weatherlink.com 1.10,2013-06-13 21:33:00,
2013-06-13 17:48:00,95.4,61.0,29.82,SSE,149,2.0,-999.0,32,-99.99,,,0.00,weatherlink.com 1.10,2013-06-13 21:48:00,
2013-06-13 18:03:00,95.4,62.0,29.82,East,94,0.0,-999.0,33,-99.99,,,0.00,weatherlink.com 1.10,2013-06-13 22:03:00,
2013-06-13 18:18:00,94.9,62.0,29.82,ESE,123,0.0,-999.0,33,-99.99,,,0.00,weatherlink.com 1.10,2013-06-13 22:18:00,
2013-06-13 18:33:00,94.9,62.0,29.82,East,92,0.0,-999.0,33,-99.99,,,0.00,weatherlink.com 1.10,2013-06-13 22:33:00,
2013-06-13 18:48:00,94.9,62.0,29.81,SSE,151,0.0,-999.0,34,-99.99,,,0.00,weatherlink.com 1.10,2013-06-13 22:48:00,
2013-06-13 19:03:00,94.9,62.0,29.82,ESE,109,0.0,-999.0,33,-99.99,,,0.00,weatherlink.com 1.10,2013-06-13 23:03:00,
2013-06-13 19:18:00,94.3,62.0,29.82,SE,133,0.0,-999.0,34,-99.99,,,0.00,weatherlink.com 1.10,2013-06-13 23:18:00,
2013-06-13 19:33:00,94.0,64.0,29.82,WNW,295,0.0,-999.0,37,-99.99,,,0.00,weatherlink.com 1.10,2013-06-13 23:33:00,
2013-06-13 19:48:00,93.2,65.0,29.82,SE,143,0.0,-999.0,39,-99.99,,,0.00,weatherlink.com 1.10,2013-06-13 23:48:00,
2013-06-13 20:03:00,92.1,65.0,29.82,East,97,1.0,-999.0,40,-99.99,,,0.00,weatherlink.com 1.10,2013-06-14 00:03:00,
2013-06-13 20:18:00,91.4,65.0,29.82,ENE,72,0.0,-999.0,42,-99.99,,,0.00,weatherlink.com 1.10,2013-06-14 00:18:00,
2013-06-13 20:33:00,90.7,65.0,29.82,ESE,115,0.0,-999.0,43,-99.99,,,0.00,weatherlink.com 1.10,2013-06-14 00:33:00,
2013-06-13 20:48:00,89.9,66.0,29.82,ESE,115,0.0,-999.0,45,-99.99,,,0.00,weatherlink.com 1.10,2013-06-14 00:48:00,
2013-06-13 21:03:00,89.3,66.0,29.82,ESE,115,0.0,-999.0,46,-99.99,,,0.00,weatherlink.com 1.10,2013-06-14 01:03:00,
2013-06-13 21:18:00,88.8,66.0,29.83,ESE,115,0.0,-999.0,47,-99.99,,,0.00,weatherlink.com 1.10,2013-06-14 01:18:00,
2013-06-13 21:33:00,88.4,66.0,29.83,ESE,115,0.0,-999.0,48,-99.99,,,0.00,weatherlink.com 1.10,2013-06-14 01:33:00,
2013-06-13 21:48:00,88.0,66.0,29.83,East,85,2.0,-999.0,49,-99.99,,,0.00,weatherlink.com 1.10,2013-06-14 01:48:00,
2013-06-13 22:03:00,87.4,66.0,29.83,East,85,0.0,-999.0,49,-99.99,,,0.00,weatherlink.com 1.10,2013-06-14 02:03:00,
2013-06-13 22:18:00,87.2,66.0,29.82,East,91,0.0,-999.0,50,-99.99,,,0.00,weatherlink.com 1.10,2013-06-14 02:18:00,
2013-06-13 22:33:00,87.0,67.0,29.82,East,101,0.0,-999.0,52,-99.99,,,0.00,weatherlink.com 1.10,2013-06-14 02:33:00,
2013-06-13 22:48:00,86.5,67.0,29.81,East,86,1.0,-999.0,53,-99.99,,,0.00,weatherlink.com 1.10,2013-06-14 02:48:00,
2013-06-13 23:03:00,86.3,67.0,29.80,East,86,1.0,-999.0,53,-99.99,,,0.00,weatherlink.com 1.10,2013-06-14 03:03:00,
2013-06-13 23:18:00,86.1,66.0,29.80,ENE,69,0.0,-999.0,52,-99.99,,,0.00,weatherlink.com 1.10,2013-06-14 03:18:00,
2013-06-13 23:33:00,85.9,67.0,29.80,SE,133,0.0,-999.0,53,-99.99,,,0.00,weatherlink.com 1.10,2013-06-14 03:33:00,
2013-06-13 23:48:00,85.7,68.0,29.79,ENE,60,0.0,-999.0,56,-99.99,,,0.00,weatherlink.com 1.10,2013-06-14 03:48:00,